Starlink 35155

operational
NORAD ID: 65935 Int'l Des: 2025-225 Owner: SPXS Country: US Constellation: starlink
NOTLE

About Starlink 35155

Description loading...

Live Position

Loading 3D Globe...

Upcoming Passes

Altitude History

Altitude vs Time

uPlot chart will show altitude changes over time

Two-Line Element Set

1 65935U 25225AB 25310.75645563 .00079703 00000-0 14254-2 0 9990
2 65935 53.1601 18.3105 0002675 57.2060 302.9206 15.49330678 4679
Epoch: Nov 6, 2025 • Age: 9 hours

Current Status

Altitude 422.7 km
Velocity 7.66 km/s
Sub-Earth Point -10.81°S, 117.32°E
Launch Date Oct 8, 2025
Age 29 days
Type internet

Technical Details

Classification Payload
Mass 575.00 kg
Dry Mass 530.00 kg
Total Mass 575.00 kg
Length 0.30 m
Diameter 4.10 m
Span 29.00 m
Shape Box + pan
Manufacturer SPXS
Bus Type Starlink V2MO
Phase Status In Orbit
Owner/State SPXS/US

Large Constellations

Loading constellations...